Showing default

GEESAT 3-06, 61016

Orbit data source: Space-Track

GEESAT 3-06, 61016 is a payload satellite owned by GeeSpace (CN) in LEO that was launched on Thu, 05 Sep 2024 UTC via a CHANG ZHENG 6 launch vehicle from the Taiyaun Space Center, China (TSC). Payload-class satellites include a variety of spacecraft equipped with specific instruments for various scientific and technological missions. These include communications satellites like Starlink; space stations such as the ISS; scientific satellites like the Hubble; Earth observation satellites from companies like Planet Labs, Umbra, and HawkEye 360; GPS; miniature CubeSats for education and research; and military/defense satellites.

Loading next visibility...
Identifier
61016, 2024-159F
Orbit
LEO
Country
Flag of CNCN / PRC
Related business
Manufacturer
GWCG
Mission
Operational Commercial Navigation
Bus & Motor
GPS100, Unknown motor
Mass
130 kg wet, 130 kg dry
Launch date (UTC)
2024-09-05 (2 years ago)
Launch vehicle
CHANG ZHENG 6
Launch site
Taiyaun Space Center, China (TSC)
Object type
Payload
Rocket body
Debris
Shape & HBR
Box + 2 Pan, 1.0 m
Radar Cross Section
0.833 m², Large (>1 m²)

Expand to show TLE details & history
Last TLE update: 10 hours ago

TLE from 10 hours ago
0 GEESAT 3-06
1 61016U 24159F   26171.40930079  .00001561  00000-0  21143-3 0  9991
2 61016  49.9990  68.4061 0016507  89.2738 271.0092 14.84216769 97248
Epoch: 2026-06-20T09:49Z
TLE epoch observation values (Epoch: 2026-06-20T09:49:23.588Z)
Latitude
-0°
Longitude
12.43348°
Altitude
616.405 km
Speed
7.552 km/s
True Right ascension
04h 33m 37s
True Declination
0° 00' 00"
Sunlit
Object was in daylight at epoch
Visualization orbit readout
Latitude
Unknown
Longitude
Unknown
Altitude
Unknown
Speed
Unknown
Apparent Right ascension
Unknown
Apparent Declination
Unknown
Sunlit
N/A
Visualization observer readout
Local Sidereal Time
07:14:52
Azimuth
Unknown
Elevation
Unknown
Doppler factor
Unknown
Orbital elements
Apogee altitude
628.351 km
Perigee altitude
605.257 km
Semi-major axis
6,994.941 km
Eccentricity
0.00165
Inclination
49.999°
RAAN
68.4061°
Arg. of periapsis
89.2738°
True anomaly
270.82007°
Mean anomaly
271.0092°
Eccentric anomaly
270.91463°
Mean motion
3.70994 °/min
Orbital period
97.04 mins
BSTAR
0.00021143
Loading maneuver chart data...
Computing Atmospheric mass density...
Loading historical data...
Loading historical data...
Loading historical data...
Loading historical data...
Loading historical data...
Loading historical data...
Loading historical data...

Documentation

Showing up to 5 results
|